Volver al catálogo

STARLINK-30290

ActivoComunicacionesVLEO
NORAD 57858·PAYLOAD·🇺🇸 United States

Lanzado Sep 12, 2023 desde Vandenberg Space Force Base

Loading…

Próximos Pases (próximas 24 horas)

TLE

ActualizadoSource: CelesTrak SupGP

Época: Sep 14, 2026, 13:33 UTC

1 57858C 23141U   26257.56506944  .00045234  00000+0  13366-2 0  2570
2 57858  53.1569 125.2878 0001295  96.7522  32.9031 15.34365162    10

Sigue STARLINK-30290 en tiempo real con AllMySat

Download on the App Store